Weather History for Santa Ana, CA

Change the Weather History Date:

Tuesday, September 17, 2013

  Actual Average Record
Temperature  
Mean Temperature 74 °F 72 °F  
Max Temperature 79 °F 79 °F 94 °F (2014)
Min Temperature 69 °F 64 °F 59 °F (2006)
Degree Days  
Heating Degree Days 0 0  
Month to date heating degree days 0 0  
Since 1 July heating degree days 0 0  
Cooling Degree Days 9 7  
Month to date cooling degree days 244 127  
Year to date cooling degree days 948 698  
Growing Degree Days 24 (Base 50)    
Moisture  
Dew Point 60 °F    
Average Humidity 63    
Maximum Humidity 73    
Minimum Humidity 52    
Precipitation  
Precipitation 0.00 in 0.01 in 0.98 in (1963)
Month to date precipitation 0.00 0.10  
Year to date precipitation 2.09 9.13  
Since 1 July precipitation 0.12 0.17  
Snow  
Snow 0.00 in - - ()
Month to date snowfall 0.0  
Year to date snowfall 0.0  
Since 1 July snowfall 0.0  
Snow Depth 0.00 in    
Sea Level Pressure  
Sea Level Pressure 29.79 in    
Wind  
Wind Speed 6 mph (SSW)    
Max Wind Speed 15 mph    
Max Gust Speed 20 mph    
Visibility 9 miles    
Events      
T = Trace of Precipitation, MM = Missing Value Source: NWS Daily Summary

Daily Weather History Graph

Daily Weather History Graph

Search for Another Location

Airport:

Trip Planner

Search our weather history database for the weather conditions in past years. The results will help you decide how hot, cold, wet, or windy it might be!

Date:

Astronomy

Sep. 17, 2013 Rise Set
Actual Time 6:36 AM PDT 6:54 PM PDT
Civil Twilight 6:11 AM PDT 7:19 PM PDT
Nautical Twilight 5:42 AM PDT 7:48 PM PDT
Astronomical Twilight 5:12 AM PDT 8:18 PM PDT
Moon 5:42 PM PDT (9/17) 4:40 AM PDT (9/17)
Length of Visible Light 13h 08m
Length of Day
12h 18m
Waxing Gibbous, 96% of the Moon is Illuminated
Sep 17
Waxing Gibbous
Sep 19
Full
Sep 26
Last Quarter
Oct 4
New
Oct 11
First Quarter

Hourly Weather History & Observations

Time (PDT) Temp. Dew Point Humidity Pressure Visibility Wind Dir Wind Speed Gust Speed Precip Events Conditions
12:53 AM 70.0 °F 61.0 °F 73% 29.80 in 9.0 mi Calm Calm - N/A   Clear
1:53 AM 71.1 °F 61.0 °F 70% 29.80 in 10.0 mi Calm Calm - N/A   Clear
2:53 AM 70.0 °F 60.1 °F 71% 29.79 in 10.0 mi Calm Calm - N/A   Clear
3:02 AM 69.8 °F 60.8 °F 73% 29.79 in 10.0 mi Calm Calm - N/A   Scattered Clouds
3:11 AM 69.8 °F 60.8 °F 73% 29.79 in 9.0 mi Calm Calm - N/A   Mostly Cloudy
3:40 AM 69.8 °F 60.8 °F 73% 29.79 in 9.0 mi SW 3.5 mph - N/A   Overcast
3:53 AM 69.1 °F 60.1 °F 73% 29.79 in 8.0 mi Calm Calm - N/A   Overcast
4:00 AM 69.8 °F 60.8 °F 73% 29.79 in 8.0 mi Calm Calm - N/A   Overcast
4:53 AM 70.0 °F 60.1 °F 71% 29.79 in 9.0 mi North 3.5 mph - N/A   Overcast
5:53 AM 69.1 °F 60.1 °F 73% 29.80 in 9.0 mi SSE 3.5 mph - N/A   Overcast
6:02 AM 69.8 °F 60.8 °F 73% 29.80 in 9.0 mi SSE 4.6 mph - N/A   Overcast
6:53 AM 69.1 °F 60.1 °F 73% 29.81 in 7.0 mi Variable 3.5 mph - N/A   Overcast
7:53 AM 70.0 °F 60.1 °F 71% 29.81 in 7.0 mi Calm Calm - N/A   Overcast
8:53 AM 70.0 °F 60.1 °F 71% 29.82 in 7.0 mi Calm Calm - N/A   Overcast
9:24 AM 71.6 °F 60.8 °F 69% 29.82 in 8.0 mi SSW 6.9 mph - N/A   Overcast
9:53 AM 72.0 °F 60.1 °F 66% 29.83 in 10.0 mi South 6.9 mph - N/A   Overcast
10:53 AM 73.9 °F 60.1 °F 62% 29.82 in 9.0 mi South 6.9 mph - N/A   Mostly Cloudy
11:24 AM 75.2 °F 60.8 °F 61% 29.81 in 10.0 mi Variable 4.6 mph - N/A   Scattered Clouds
11:53 AM 75.9 °F 59.0 °F 56% 29.81 in 10.0 mi SW 11.5 mph - N/A   Scattered Clouds
12:53 PM 77.0 °F 59.0 °F 54% 29.80 in 10.0 mi SW 12.7 mph - N/A   Partly Cloudy
1:53 PM 78.1 °F 59.0 °F 52% 29.78 in 10.0 mi SW 12.7 mph 19.6 mph N/A   Clear
2:53 PM 78.1 °F 59.0 °F 52% 29.75 in 10.0 mi SW 12.7 mph - N/A   Partly Cloudy
3:53 PM 75.9 °F 59.0 °F 56% 29.75 in 10.0 mi SW 11.5 mph - N/A   Clear
4:53 PM 73.9 °F 59.0 °F 59% 29.74 in 10.0 mi SSW 9.2 mph - N/A   Partly Cloudy
5:53 PM 73.0 °F 60.1 °F 64% 29.74 in 10.0 mi South 10.4 mph - N/A   Scattered Clouds
6:53 PM 71.1 °F 60.1 °F 68% 29.75 in 10.0 mi SSW 5.8 mph - N/A   Partly Cloudy
7:53 PM 70.0 °F 60.1 °F 71% 29.75 in 10.0 mi SSW 5.8 mph - N/A   Scattered Clouds
8:53 PM 70.0 °F 60.1 °F 71% 29.77 in 10.0 mi SW 3.5 mph - N/A   Clear
9:53 PM 69.1 °F 60.1 °F 73% 29.77 in 10.0 mi SSW 3.5 mph - N/A   Mostly Cloudy
10:01 PM 69.8 °F 60.8 °F 73% 29.78 in 10.0 mi South 4.6 mph - N/A   Mostly Cloudy
10:18 PM 69.8 °F 60.8 °F 73% 29.77 in 10.0 mi SE 4.6 mph - N/A   Overcast
10:53 PM 70.0 °F 60.1 °F 71% 29.77 in 10.0 mi SSE 3.5 mph - N/A   Overcast
11:53 PM 70.0 °F 60.1 °F 71% 29.78 in 10.0 mi Calm Calm - N/A   Overcast